Home > Weather > Nouakchott > Past weeks

Flag for Mauritania Past Weather in Nouakchott, Mauritania — Yesterday and Last 2 Weeks

Now
68 °F

Clear.


Feels Like: 68 °F
Forecast: 70 / 80 °F
Wind: 8 mph from Northwest

Location: Nouakchott Airport

Current Time: Jun 1, 2016 at 5:48:02 AM

Latest Report: Jun 1, 2016 at 5:30 AM


Visibility: 4 mi

Pressure: 29.83 "Hg

Humidity: 78%

Dew Point: 61 °F

Location of NouakchottLocation

Past Weather in Nouakchott — Graph

°F

Nouakchott Temperature Yesterday

Maximum temperature yesterday: 97 °F (at 11:00 AM)
Minimum temperature yesterday: 72 °F (at 11:30 PM)
Average temperature yesterday: 80 °F

High & Low Weather Summary for the Past Weeks

 TemperatureHumidityPressure
High102 °F (May 19, 2:00 PM)88% (May 17, 5:00 AM)30.07 "Hg (May 17, 5:00 AM)
Low66 °F (May 17, 5:00 AM)10% (May 19, 1:30 PM)29.74 "Hg (May 31, 1:30 AM)
Average75 °F62%29.90 "Hg
* Reported May 17 4:00 AM — Jun 1 4:30 AM, Nouakchott, Weather by CustomWeather, © 2016

Note: Actual official high and low records may vary slightly from our data, if they occured in-between our weather recording intervals... More about our weather records

Advertising

Nouakchott Weather History for the Previous 24 Hours

Scroll right to see more
 ConditionsComfort  
Time TempWeatherWind HumidityBarometerVisibility
4:30 AM
Wed, Jun 1
68 °FClear.8 mph78%29.83 "Hg4 mi
4:00 AM68 °FClear.8 mph78%29.83 "Hg4 mi
3:30 AM70 °FClear.7 mph73%29.83 "Hg4 mi
3:00 AM70 °FClear.6 mph73%29.83 "Hg4 mi
2:30 AM70 °FClear.7 mph73%29.83 "Hg4 mi
2:00 AM70 °FClear.7 mph73%29.86 "Hg4 mi
1:30 AM70 °FClear.6 mph73%29.86 "Hg4 mi
1:00 AM72 °FClear.7 mph69%29.89 "Hg4 mi
12:30 AM72 °FClear.6 mph65%29.89 "Hg4 mi
12:00 AM72 °FClear.5 mph65%29.89 "Hg4 mi
11:30 PM
Tue, May 31
72 °FClear.7 mph65%29.89 "Hg4 mi
11:00 PM73 °FClear.7 mph61%29.89 "Hg4 mi
10:30 PM73 °FClear.7 mph57%29.86 "Hg4 mi
10:00 PM73 °FClear.8 mph57%29.86 "Hg4 mi
9:30 PM73 °FClear.7 mph61%29.86 "Hg4 mi
9:00 PM73 °FClear.7 mph61%29.86 "Hg4 mi
8:30 PM73 °FClear.7 mph61%29.83 "Hg4 mi
8:00 PM75 °FClear.6 mph57%29.83 "Hg4 mi
7:30 PM75 °FClear.6 mph57%29.83 "Hg4 mi
7:00 PM77 °FClear.7 mph54%29.80 "Hg4 mi
6:30 PM77 °FClear.7 mph54%29.80 "Hg4 mi
6:00 PM81 °FClear.7 mph48%29.80 "Hg4 mi
4:00 PM86 °FClear.9 mph33%29.80 "Hg4 mi
3:30 PM86 °FClear.12 mph31%29.80 "Hg4 mi
3:00 PM86 °FClear.13 mph31%29.80 "Hg4 mi
2:30 PM88 °FClear.12 mph31%29.80 "Hg4 mi
2:00 PM88 °FClear.12 mph31%29.80 "Hg4 mi
1:30 PM86 °FClear.9 mph35%29.80 "Hg4 mi
1:00 PM88 °FClear.8 mph35%29.80 "Hg4 mi
12:30 PM86 °FClear.8 mph38%29.83 "Hg4 mi
12:00 PM86 °FClear.10 mph40%29.83 "Hg4 mi
11:30 AM86 °FClear.10 mph40%29.83 "Hg5 mi
11:00 AM97 °FClear.5 mph10%29.83 "Hg5 mi
10:30 AM95 °FClear.8 mph11%29.83 "Hg4 mi
10:00 AM91 °FClear.8 mph13%29.83 "Hg4 mi
9:30 AM88 °FClear.9 mph18%29.80 "Hg4 mi
9:00 AM84 °FClear.9 mph23%29.80 "Hg4 mi
8:30 AM82 °FClear.10 mph25%29.80 "Hg4 mi
8:00 AM79 °FClear.9 mph32%29.80 "Hg4 mi
7:30 AM77 °FClear.8 mph36%29.77 "Hg4 mi
7:00 AM77 °FClear.7 mph34%29.77 "Hg4 mi
6:30 AM75 °FClear.9 mph39%29.77 "Hg4 mi
6:00 AM75 °FClear.10 mph41%29.77 "Hg4 mi
5:30 AM75 °FClear.9 mph44%29.77 "Hg4 mi
5:00 AM75 °FClear.12 mph47%29.77 "Hg4 mi
Weather by CustomWeather, © 2016

See weather overviewHow to use our weather pages